DateTimeUTC,F1_A11,F1_S11,BsB_S11,BsG_S11,BsR_S11,BbsB_S11,BbsG_S11,BbsR_S11,BaB_A11,BaG_A11,BaR_A11,Tu_S11,T_S11,Uu_S11,U_S11,P_S11,T1_A11
2021-09-22T02:00:00Z,00000200,21000000,,,,,,,-000.44,-000.27,-000.61,18.4,25.4,,00.0,0653.3,31.0
2021-09-22T02:01:00Z,00000200,21000000,,,,,,,0000.16,-000.22,0000.32,18.3,25.4,,00.0,0653.3,31.0
2021-09-22T02:02:00Z,00000200,21000000,,,,,,,-000.16,-000.20,-000.84,18.3,25.4,,00.0,0653.3,30.9
2021-09-22T02:03:00Z,00000200,61000000,,,,,,,0000.28,0000.73,0000.73,18.3,25.4,,00.0,0653.3,30.9
2021-09-22T02:04:00Z,00000200,41000000,0003.23,0000.96,0000.76,0000.71,0000.31,0000.32,0000.75,0000.49,0000.59,18.2,25.0,,00.0,0654.1,30.9
2021-09-22T02:05:00Z,00000200,01000000,0001.79,0001.42,0000.51,-000.06,0000.16,0000.06,0000.58,0000.56,0000.32,18.2,25.0,,00.0,0654.2,31.0
2021-09-22T02:06:00Z,00000200,01000000,0002.18,0001.44,0000.81,0000.74,0000.33,0000.54,0000.71,0000.59,0000.39,18.2,24.9,,00.0,0654.2,30.9
2021-09-22T02:07:00Z,00000200,01000000,0002.63,0001.43,0000.69,0000.59,0000.64,0000.42,0000.24,0000.26,0000.48,18.3,24.9,,00.0,0654.2,30.9
2021-09-22T02:08:00Z,00000200,01000000,0002.32,0001.34,0000.86,-000.03,0000.26,0000.38,0000.55,0000.48,0000.03,18.3,25.0,,00.0,0654.2,31.0
2021-09-22T02:09:00Z,00000200,01000000,0001.44,0001.06,0000.78,0000.73,0000.22,0000.17,0000.29,0000.48,0000.57,18.4,25.0,,00.0,0654.1,31.0
2021-09-22T02:10:00Z,00000200,01000000,0001.86,0001.28,0000.95,0000.80,0000.31,0000.20,0000.56,0000.61,0000.53,18.4,25.0,,00.0,0654.2,31.0
2021-09-22T02:11:00Z,00000200,01000000,0001.85,0001.30,0001.01,0000.35,0000.33,0000.01,0000.15,-000.01,0000.35,18.5,25.0,,00.0,0654.2,31.0
2021-09-22T02:12:00Z,00000200,01000000,0002.85,0001.42,0000.88,0000.74,0000.03,-000.01,0000.80,0000.78,0000.20,18.5,25.0,,00.0,0654.2,31.0
2021-09-22T02:13:00Z,00000200,01000000,0001.76,0001.29,0000.73,0000.50,0000.25,0000.13,-000.12,0000.14,0000.20,18.6,25.1,,00.0,0654.2,31.0
2021-09-22T02:14:00Z,00000200,01000000,0002.08,0001.43,0000.85,0000.15,0000.20,0000.34,0000.47,0000.48,0000.52,18.6,25.1,,00.0,0654.2,31.0
2021-09-22T02:15:00Z,00000200,01000000,0002.63,0001.31,0000.74,0000.15,0000.24,0000.08,0000.43,0000.37,-000.12,18.6,25.1,,00.0,0654.2,31.0
2021-09-22T02:16:00Z,00000200,01000000,0001.11,0001.09,0000.59,0000.44,0000.22,0000.12,0000.31,-000.36,0000.18,18.6,25.1,,00.0,0654.2,31.0
2021-09-22T02:17:00Z,00000200,01000000,0002.06,0001.27,0000.87,0000.20,0000.09,0000.07,0000.36,0000.50,0000.23,18.5,25.0,,00.0,0654.2,31.0
2021-09-22T02:18:00Z,00000200,01000000,0001.96,0001.13,0000.44,0000.17,0000.22,-000.03,0000.03,0000.26,-000.01,18.4,25.0,,00.0,0654.2,30.9
2021-09-22T02:19:00Z,00000200,01000000,0002.14,0001.85,0000.45,0000.20,0000.18,-000.16,0000.73,0000.19,0000.72,18.3,24.9,,00.0,0654.2,30.9
2021-09-22T02:20:00Z,00000200,01000000,0002.15,0001.40,0000.58,0000.33,0000.43,0000.34,0000.49,0000.73,0000.38,18.3,24.9,,00.0,0654.1,30.9
2021-09-22T02:21:00Z,00000200,01000000,0001.80,0001.50,0000.55,0000.09,0000.32,-000.05,0000.79,0000.58,0000.37,18.3,24.9,,00.0,0654.2,30.9
2021-09-22T02:22:00Z,00000200,01000000,0002.42,0001.80,0000.49,0000.39,0000.37,0000.17,0000.06,0000.38,0000.21,18.4,24.9,,00.0,0654.2,31.0
2021-09-22T02:23:00Z,00000200,01000000,0001.95,0001.09,0000.54,0000.92,0000.33,0000.34,0000.89,0000.50,0000.55,18.4,24.9,,00.0,0654.2,31.0
2021-09-22T02:24:00Z,00000200,01000000,0001.86,0001.52,0000.73,0000.16,0000.42,0000.41,0000.19,0000.29,0000.35,18.5,25.0,,00.0,0654.2,31.0
2021-09-22T02:25:00Z,00000200,01000000,0001.65,0001.48,0000.79,0000.46,0000.32,0000.12,0000.50,0000.40,0000.38,18.5,25.0,,00.0,0654.2,31.0
2021-09-22T02:26:00Z,00000200,01000000,0002.28,0001.40,0000.62,-000.01,0000.50,0000.46,0000.32,0000.60,0000.33,18.6,25.0,,00.0,0654.3,31.0
2021-09-22T02:27:00Z,00000200,01000000,0001.91,0001.28,0000.34,0000.14,0000.36,0000.01,0000.06,0000.05,0000.08,18.6,25.0,,00.0,0654.2,31.0
2021-09-22T02:28:00Z,00000200,01000000,0002.27,0001.43,0000.70,0000.29,0000.23,-000.14,0000.90,0000.53,0000.63,18.7,25.0,,00.0,0654.2,31.0
2021-09-22T02:29:00Z,00000200,01000000,0002.39,0001.13,0000.34,0000.09,0000.22,0000.07,0000.43,0000.25,0000.15,18.7,25.1,,00.0,0654.2,31.0
2021-09-22T02:30:00Z,00000200,01000000,0001.63,0001.47,0000.63,0000.52,0000.18,0000.29,0000.02,0000.66,0000.13,18.8,25.1,,00.0,0654.2,31.0
2021-09-22T02:31:00Z,00000200,01000000,0001.45,0000.89,0000.51,-000.23,0000.66,-000.25,0000.57,-000.07,0000.31,18.7,25.1,,00.0,0654.2,31.0
2021-09-22T02:32:00Z,00000200,01000000,0003.29,0001.33,0000.70,0000.19,0000.07,0000.10,-000.20,0000.47,-000.27,18.7,25.1,,00.0,0654.2,31.0
2021-09-22T02:33:00Z,00000200,01000000,0001.77,0001.35,0000.55,0000.41,0000.41,0000.40,0000.49,-000.16,0000.31,18.6,25.1,,00.0,0654.1,31.0
2021-09-22T02:34:00Z,00000200,01000000,0002.85,0001.33,0000.22,0000.53,0000.18,0000.06,0000.26,0000.61,0000.63,18.5,25.0,,00.0,0654.2,31.0
2021-09-22T02:35:00Z,00000200,01000000,0002.35,0001.24,0000.82,0000.06,0000.26,0000.14,0000.40,0000.62,0000.28,18.5,25.0,,00.0,0654.2,31.0
2021-09-22T02:36:00Z,00000200,01000000,0002.21,0001.31,0000.91,0000.31,0000.28,0000.11,0000.77,0000.38,0000.40,18.5,25.0,,00.0,0654.2,31.0
2021-09-22T02:37:00Z,00000200,01000000,0002.29,0001.20,0000.39,0000.32,0000.37,0000.08,0000.31,-000.25,0000.29,18.6,25.0,,00.0,0654.2,31.0
2021-09-22T02:38:00Z,00000200,01000000,0001.95,0001.25,0000.56,0000.52,0000.27,0000.28,0000.06,0000.62,0000.10,18.6,25.0,,00.0,0654.1,31.0
2021-09-22T02:39:00Z,00000200,01000000,0002.67,0001.32,0000.66,0000.83,0000.19,0000.10,0000.46,0000.78,0000.60,18.7,25.0,,00.0,0654.2,31.0
2021-09-22T02:40:00Z,00000200,01000000,0001.16,0001.39,0000.85,0000.19,-000.04,0000.24,0000.63,0000.04,0000.81,18.7,25.1,,00.0,0654.1,31.0
2021-09-22T02:41:00Z,00000200,01000000,0002.24,0001.08,0000.81,0000.04,0000.46,0000.19,0000.50,0000.81,-000.19,18.7,25.1,,00.0,0654.2,31.0
2021-09-22T02:42:00Z,00000200,01000000,0002.45,0001.12,0000.27,0000.73,0000.02,-000.15,0000.15,0000.22,0000.32,18.8,25.1,,00.0,0654.1,31.0
2021-09-22T02:43:00Z,00000200,01000000,0001.76,0001.11,0000.80,0000.42,0000.43,0000.04,0000.42,0000.17,0000.27,18.8,25.1,,00.0,0654.2,31.0
2021-09-22T02:44:00Z,00000200,01000000,0001.69,0001.11,0000.59,0000.20,0000.27,0000.25,0000.67,0000.46,0000.22,18.9,25.1,,00.0,0654.2,31.0
2021-09-22T02:45:00Z,00000200,01000000,0002.01,0000.96,0000.68,-000.21,0000.10,0000.20,0000.34,0000.41,0000.23,18.9,25.1,,00.0,0654.1,31.0
2021-09-22T02:46:00Z,00000200,01000000,0002.18,0001.35,0000.41,0000.42,0000.63,0000.22,-000.44,-000.28,0000.10,18.8,25.2,,00.0,0654.1,31.0
2021-09-22T02:47:00Z,00000200,01000000,0001.71,0001.76,0000.69,0000.33,-000.24,0000.10,0000.49,0000.04,-000.11,18.8,25.1,,00.0,0654.1,31.0
2021-09-22T02:48:00Z,00000200,01000000,0001.46,0001.14,0000.51,0000.36,-000.06,0000.09,0000.56,0000.47,0000.61,18.7,25.1,,00.0,0654.1,31.0
2021-09-22T02:49:00Z,00000200,01000000,0002.37,0001.13,0000.59,0000.49,0000.37,-000.04,0000.45,0000.50,0000.17,18.6,25.0,,00.0,0654.0,31.0
2021-09-22T02:50:00Z,00000200,01000000,0001.49,0001.35,0000.49,0000.37,0000.33,0000.15,0000.27,0000.33,0000.44,18.6,25.0,,00.0,0654.1,31.0
2021-09-22T02:51:00Z,00000200,01000000,0001.86,0001.46,0000.64,0000.43,0000.42,0000.42,0000.12,0000.29,0000.26,18.6,25.0,,00.0,0654.0,31.0
2021-09-22T02:52:00Z,00000200,01000000,0002.08,0001.36,0000.68,0000.51,0000.18,0000.10,0000.68,0000.71,0000.35,18.6,25.0,,00.0,0654.1,31.0
2021-09-22T02:53:00Z,00000200,01000000,0001.74,0001.05,0000.77,0000.56,0000.48,0000.49,0000.59,0000.10,-000.02,18.6,25.1,,00.0,0654.0,31.0
2021-09-22T02:54:00Z,00000200,01000000,0001.95,0001.15,0000.66,0000.25,0000.34,0000.13,0000.19,0000.36,0000.53,18.7,25.1,,00.0,0654.0,31.0
2021-09-22T02:55:00Z,00000200,01000000,0001.44,0001.34,0000.55,0000.74,-000.11,0000.07,0000.58,0000.50,0000.47,18.7,25.1,,00.0,0654.0,31.0
2021-09-22T02:56:00Z,00000200,01000000,0001.84,0001.20,0000.94,0000.53,0000.23,0000.52,0000.06,0000.35,0000.10,18.7,25.1,,00.0,0654.0,31.0
2021-09-22T02:57:00Z,00000200,41000000,,,,,,,-000.44,-000.49,-000.41,18.8,25.1,,00.0,0654.2,31.0
2021-09-22T02:58:00Z,00000200,61000000,,,,,,,0000.02,0000.20,0000.27,18.5,25.3,,00.0,0653.2,31.0
2021-09-22T02:59:00Z,00000200,21000000,,,,,,,0000.59,0000.26,0000.15,18.6,25.4,,00.0,0653.1,31.0
